Location: Kampung Segan
(3.1399°N, 113.1002°E)
Time: 13:17:54
(UTC+00:00)

Delta 202 - Pass Details

Date: 05 August 2024
Orbit: 781 x 2712 km, 18.5° (Epoch: 07 September)

Event Time Altitude Azimuth Distance (km) Brightness Sun altitude
Exits shadow 20:41:49 70° 203° (SSW) 837 3.4 -25.6°
Maximum altitude 20:41:51 70° 200° (SSW) 837 3.4 -25.6°
Drops below altitude 10° 20:47:06 10° 116° (ESE) 2,341 6.5 -24.4°
Sets 20:49:37 0° 114° (ESE) 3,337 7.5 -23.8°
